Regional Weather Roundup
Issued by NWS

Home | Current Version | Previous Version | Graphics & Text | Print | Product List | Glossary On
Versions: 1 2 3 4 5 6 7 8 9 10 11 12 13 14 15 16 17 18 19 20 21 22 23 24 25 26 27 28 29 30 31 32 33 34 35 36 37 38 39 40 41 42 43 44 45 46 47 48 49 50
000
ASUS43 KBIS 262202
RWRND

NORTH DAKOTA REGIONAL WEATHER ROUNDUP
NATIONAL WEATHER SERVICE BISMARCK ND
500 PM CDT THU MAY 26 2016

NOTE: "FAIR" INDICATES FEW OR NO CLOUDS BELOW 12,000 FEET WITH NO
SIGNIFICANT WEATHER AND/OR OBSTRUCTIONS TO VISIBILITY.


NDZ001>003-009>011-017-262300-
NORTHWEST NORTH DAKOTA

CITY           SKY/WX    TMP DP  RH WIND       PRES   REMARKS
WILLISTON      LGT RAIN  63  49  60 NW8       29.79S
MINOT          MOSUNNY   71  52  50 N9        29.77F
MINOT AFB      CLOUDY    65  55  70 NE15      29.77F
$$

NDZ018>021-031>035-040>046-262300-
SOUTHWEST NORTH DAKOTA

CITY           SKY/WX    TMP DP  RH WIND       PRES   REMARKS
BISMARCK       MOSUNNY   75  43  31 W17       29.76F
DICKINSON      PTSUNNY   64  39  39 W10       29.78F
GARRISON         N/A     54  50  86 N9        29.79F
HETTINGER ARPT CLOUDY    63  42  46 W16G26    29.83S
$$

NDZ004>008-012>016-024-026-027-054-262300-
NORTHEAST NORTH DAKOTA

CITY           SKY/WX    TMP DP  RH WIND       PRES   REMARKS
GRAND FORKS    MOSUNNY   70  54  56 W14G23    29.74S
GRND FRKS AFB  MOSUNNY   70  54  57 W16G22    29.74S
DEVILS LAKE    PTSUNNY   65  53  65 NW10      29.78F
$$

NDZ022-023-025-028>030-036>039-047>053-262300-
SOUTHEAST NORTH DAKOTA

CITY           SKY/WX    TMP DP  RH WIND       PRES   REMARKS
FARGO          MOSUNNY   76  51  41 W16G23    29.76F
JAMESTOWN      MOSUNNY   74  50  42 SW12      29.75F
$$





USA.gov is the U.S. government's official web portal to all federal, state and local government web resources and services.